Regional Weather Roundup
Issued by NWS

Home | Current Version | Previous Version | Graphics & Text | Print | Product List | Glossary On
Versions: 1 2 3 4 5 6 7 8 9 10 11 12 13 14 15 16 17 18 19 20 21 22 23 24 25 26 27 28 29 30 31 32 33 34 35 36 37 38 39 40 41 42 43 44 45 46 47 48 49 50
000
ASUS45 KSLC 261210
RWRUT

UTAH REGIONAL WEATHER ROUNDUP
NATIONAL WEATHER SERVICE SALT LAKE CITY UT
500 AM MST THU FEB 26 2015

UTZ001>011-023>025-261300-

NORTHERN UTAH

CITY           SKY/WX    TMP DP  RH WIND       PRES   REMARKS
BRIGHAM CITY   CLOUDY    29  21  73 CALM      29.99F
HILL AFB       CLOUDY    33  17  52 E13       29.96F WCI  24
LOGAN          CLEAR     27  22  81 E3        29.98F
OGDEN          CLOUDY    33  20  58 S6        29.97F WCI  28
PROVO AIRPORT  CLOUDY    28  19  69 CALM      29.99F
SALT LAKE CITY CLOUDY    34  20  56 S3        29.97F
VERNAL         CLOUDY    24  15  68 CALM      30.05S
WENDOVER       CLOUDY    37  18  44 W5        29.98F WCI  34
HEBER CITY     MOCLDY    23  18  80 CALM      29.99S
WEST JORDAN    CLEAR     32  19  59 S3        29.98F

$$

UTZ012>022-026-027-261300-

SOUTHERN/CENTRAL UTAH

CITY           SKY/WX    TMP DP  RH WIND       PRES   REMARKS
BLANDING       MOCLDY    25  19  76 N9        30.07S WCI  15
BRYCE CANYON   MOCLDY    11   6  81 W7        30.01F WCI   0
CEDAR CITY     CLOUDY    24  18  77 W5        29.95F WCI  18
DELTA          CLOUDY    26  13  57 SW3       29.98S
HANKSVILLE     PTCLDY    32  27  80 N3        30.03S
MILFORD        CLOUDY    26  17  68 S6        29.97F WCI  19
MOAB/CYNLANDS  CLEAR     28  18  66 CALM      30.00S
PRICE          MOCLDY    26  11  52 N9        29.97F WCI  17
ST GEORGE      PTSUNNY   41  30  65 E3        29.97F
KANAB          MOCLDY    28  23  80 CALM      30.02F

$$

REGIONAL REPORTS     COLORADO/ARIZONA

CITY           SKY/WX    TMP DP  RH WIND       PRES   REMARKS
CRAIG, CO      MOCLDY    12   8  84 E3        30.04
GRAND JUNCTION CLEAR     19  16  88 CALM      30.03S
RIFLE          CLEAR     19  13  77 E5        30.05S WCI  12
MONTROSE       CLEAR     16  12  84 SE8       30.06R WCI   5
CORTEZ         CLEAR     23  18  81 E5        30.01R WCI  17
PAGE, AZ       MOCLDY    39  26  59 S3        29.97F
GRAND CANYON   PTCLDY    22  19  89 CALM      30.02F
KINGMAN        CLEAR     35  27  72 CALM      29.95F
FLAGSTAFF      PTCLDY    23  15  71 CALM      30.02F

$$

REGIONAL REPORTS    NEVADA/IDAHO/WYOMING

CITY           SKY/WX    TMP DP  RH WIND       PRES   REMARKS
LAS VEGAS, NV  PTCLDY    48  32  53 SW3       29.87F
ELY            CLOUDY    27   9  46 MISG      30.00F
ELKO           LGT SNOW  33  32  96 SW3       30.02F FOG
POCATELLO, ID  MOCLDY    25  18  74 N6        29.99F WCI  18
BURLEY         CLOUDY    32  22  66 W7        29.98S WCI  26
EVANSTON, WY   MOCLDY    22  14  71 SE6       29.95F WCI  14
ROCK SPRINGS   PTCLDY    10   5  80 E5        30.00F WCI   2

$$



USA.gov is the U.S. government's official web portal to all federal, state and local government web resources and services.